User: anonymous   Login
Location: Aiyekoto
(8.4333°N, 4.3667°E)
Time: 12:55:41
(UTC+00:00)
Language:

S-56A Canister/Altair - Orbit

View from above orbital plane
View from above orbital plane
View from above satellite
View from above satellite

Ground track
Ground track

The orbit data is extracted from the following two-line orbital elements,

1    82U 61004B   20269.45046441 -.00000079 +00000-0 -36459-4 0  9997
2    82 038.8588 188.1048 1174883 206.2834 147.3320 12.26058926820088
Epoch (UTC): 25 September 2020 10:48:40
Eccentricity: 0.1174883
inclination: 38.8588°
perigee height: 633 km
apogee height: 2499 km
right ascension of ascending node: 188.1048°
argument of perigee: 206.2834°
revolutions per day: 12.26058926
mean anomaly at epoch: 147.3320°
orbit number at epoch: 82008

The dashed part of the orbit path shows where the satellite is in the earth's shadow,  

DLR